FW0659 Weather Reports


Display with metric or nautical units.
time (UTC)temp
F
wind
direction
speed
MPH
gust
MPH
rain 1hr
in
rain 24hr
in
rain mn
in
humidity
%
barometer
mb
20260507010005 48 268 0.0 3.0 0.00 0.27 0.27 87 1009.2
20260507004503 48 268 0.0 3.0 0.00 0.27 0.27 86 1009.1
20260507003001 48 267 2.0 4.0 0.00 0.27 0.27 87 1009.0
20260507001621 48 267 2.0 7.0 0.00 0.27 0.27 87 1008.9
20260507000100 48 268 1.0 7.0 0.00 0.27 0.27 87 1008.6
20260506234555 48 261 4.0 7.0 0.00 0.27 0.27 87 1008.5
20260506233057 48 267 4.0 7.0 0.00 0.27 0.27 87 1008.4
20260506231551 48 267 3.0 7.0 0.00 0.27 0.27 87 1008.3
20260506230049 49 283 2.0 5.0 0.00 0.27 0.27 87 1008.2
20260506224548 49 267 2.0 7.0 0.00 0.27 0.27 88 1008.2
20260506223103 49 290 2.0 5.0 0.00 0.27 0.27 88 1007.9
20260506221544 49 275 2.0 9.0 0.00 0.27 0.27 88 1007.6
20260506220043 49 313 3.0 11.0 0.00 0.27 0.27 89 1007.5
20260506214542 49 300 7.0 11.0 0.00 0.27 0.27 89 1007.7
20260506213040 49 307 7.0 13.0 0.00 0.27 0.27 89 1007.4
20260506211537 49 318 5.0 14.0 0.00 0.27 0.27 90 1007.1
20260506210038 49 284 4.0 11.0 0.00 0.27 0.27 90 1006.7
20260506204530 49 291 5.0 12.0 0.01 0.27 0.27 90 1006.4
20260506203035 49 286 4.0 10.0 0.01 0.27 0.27 90 1006.2
20260506201526 50 298 5.0 10.0 0.02 0.27 0.27 90 1005.7
20260506200023 50 306 3.0 9.0 0.03 0.27 0.27 90 1005.6
20260506194521 50 303 5.0 14.0 0.02 0.28 0.26 90 1005.6
20260506193019 50 277 5.0 10.0 0.01 0.27 0.25 90 1005.6
20260506191518 51 252 6.0 10.0 0.01 0.27 0.25 89 1005.3
20260506190018 51 260 3.0 6.0 0.00 0.26 0.24 89 1005.0
20260506184514 51 286 3.0 5.0 0.00 0.26 0.24 89 1004.8
20260506183014 51 250 7.0 12.0 0.00 0.26 0.24 89 1004.8
20260506181510 52 282 5.0 12.0 0.00 0.26 0.24 89 1004.5
20260506180007 53 319 5.0 10.0 0.00 0.26 0.24 89 1004.3
20260506174503 54 335 4.0 12.0 0.00 0.27 0.24 88 1003.8
20260506173003 56 284 4.0 9.0 0.00 0.27 0.24 89 1003.7
20260506171603 58 238 6.0 11.0 0.00 0.27 0.24 89 1003.4
20260506170059 60 259 4.0 8.0 0.01 0.27 0.24 89 1003.0
20260506164557 60 266 4.0 8.0 0.01 0.27 0.24 89 1003.2
20260506163103 59 210 4.0 8.0 0.01 0.27 0.24 89 1003.1
20260506161557 59 205 3.0 6.0 0.02 0.27 0.24 89 1003.1
20260506160104 59 226 4.0 8.0 0.02 0.26 0.23 89 1003.3
20260506154550 59 222 3.0 7.0 0.03 0.26 0.23 89 1003.2
20260506153046 59 221 3.0 13.0 0.03 0.26 0.23 89 1003.2
20260506151546 59 198 5.0 8.0 0.03 0.25 0.22 89 1003.3
20260506150043 59 293 0.0 2.0 0.03 0.24 0.21 90 1003.3
20260506144538 59 293 0.0 2.0 0.03 0.23 0.20 90 1003.2
20260506143037 58 293 0.0 2.0 0.05 0.23 0.20 90 1003.2
20260506141535 58 293 0.0 2.0 0.06 0.22 0.19 90 1003.3
20260506140032 58 293 0.0 1.0 0.07 0.21 0.18 90 1003.4
20260506134604 57 293 0.0 2.0 0.09 0.20 0.17 90 1003.5
20260506133030 57 293 0.0 5.0 0.09 0.18 0.15 89 1003.7
20260506131529 56 308 0.0 2.0 0.09 0.16 0.13 89 1004.1
20260506130026 56 308 1.0 3.0 0.08 0.14 0.11 89 1004.3
20260506124525 55 307 1.0 3.0 0.05 0.11 0.08 88 1004.3
20260506123027 55 308 0.0 3.0 0.04 0.09 0.06 88 1004.0
20260506121523 55 307 0.0 2.0 0.02 0.07 0.04 88 1003.9
20260506120022 55 308 0.0 1.0 0.01 0.06 0.03 88 1003.8
20260506114532 55 307 0.0 3.0 0.01 0.08 0.03 87 1004.2
20260506113021 55 307 0.0 2.0 0.00 0.07 0.02 87 1004.3
20260506111520 55 308 0.0 2.0 0.01 0.07 0.02 87 1004.5
20260506110019 55 308 0.0 2.0 0.01 0.07 0.02 86 1004.3
20260506104519 55 307 0.0 2.0 0.01 0.07 0.02 86 1004.3
20260506103025 55 308 0.0 3.0 0.01 0.07 0.02 86 1004.3
20260506101516 54 308 0.0 1.0 0.00 0.06 0.01 85 1003.9
20260506100028 55 307 0.0 2.0 0.00 0.06 0.01 84 1003.8
20260506094517 55 308 0.0 2.0 0.01 0.06 0.01 84 1003.9
20260506093013 55 308 0.0 1.0 0.01 0.06 0.01 83 1003.9
20260506091511 55 308 0.0 1.0 0.01 0.06 0.01 83 1004.0
20260506090011 55 308 0.0 2.0 0.01 0.06 0.01 83 1004.2
20260506084508 55 308 0.0 2.0 0.00 0.05 0.00 82 1004.4
20260506083008 55 308 0.0 5.0 0.00 0.05 0.00 81 1004.6
20260506081509 55 309 2.0 5.0 0.00 0.05 0.00 80 1004.6
20260506073100 56 17 0.0 4.0 0.00 0.05 0.00 79 1004.4
20260506071559 57 33 2.0 4.0 0.00 0.05 0.00 79 1004.4
20260506070124 57 13 2.0 5.0 0.00 0.05 0.00 79 1004.3
20260506061550 57 5 2.0 3.0 0.00 0.05 0.00 79 1005.0
20260506044540 58 5 0.0 0.0 0.00 0.05 0.00 77 1006.1
20260506043038 58 5 0.0 1.0 0.00 0.05 0.00 76 1006.1
20260506041539 58 5 0.0 2.0 0.00 0.05 0.00 76 1006.1
20260506040034 58 5 0.0 1.0 0.00 0.05 0.00 75 1006.3
20260506034532 58 5 0.0 4.0 0.00 0.05 0.05 74 1006.4
20260506033032 59 9 2.0 4.0 0.00 0.05 0.05 74 1006.8
20260506031537 59 9 0.0 5.0 0.00 0.05 0.05 74 1006.6
20260506030029 59 20 2.0 6.0 0.00 0.05 0.05 74 1006.5
20260506024537 60 338 3.0 12.0 0.00 0.05 0.05 75 1006.5
20260506023022 61 10 10.0 17.0 0.00 0.05 0.05 77 1006.5
20260506021520 63 351 1.0 4.0 0.00 0.05 0.05 80 1006.1
20260506020017 63 351 1.0 6.0 0.00 0.05 0.05 81 1006.0
20260506014516 63 360 3.0 8.0 0.00 0.05 0.05 82 1005.8
20260506013014 63 11 2.0 6.0 0.00 0.05 0.05 83 1005.7
20260506011525 63 5 2.0 13.0 0.00 0.05 0.05 84 1005.2